Sable Island, Nova Scotia

1:35 PM ADT on April 26, 2017 (GMT -0300)
Sable Island

Weather History for CWSA - December, 2012

Change the Weather History Date:

Sunday, December 9, 2012

  Actual Average Record
Temperature  
Mean Temperature 48 °F -  
Max Temperature 54 °F 40 °F 55 °F (1996)
Min Temperature 42 °F 30 °F 17 °F (2002)
Degree Days  
Heating Degree Days 17    
Moisture  
Dew Point 47 °F    
Average Humidity 90    
Maximum Humidity 100    
Minimum Humidity 50    
Precipitation  
Precipitation 0.12 in 0.19 in - ()
Sea Level Pressure  
Sea Level Pressure 29.95 in    
Wind  
Wind Speed 18 mph ()    
Max Wind Speed 28 mph    
Max Gust Speed 34 mph    
Visibility 4.6 miles    
Events Rain    
Averages and records for this station are not official NWS values.
T = Trace of Precipitation, MM = Missing Value Source: Averaged Metar Reports

Daily Weather History Graph

Daily Weather History Graph

Search for Another Location

Airport or City:

Trip Planner

Search our weather history database for the weather conditions in past years. The results will help you decide how hot, cold, wet, or windy it might be!

Date:

Astronomy

Dec. 09, 2012 Rise Set
Actual Time 7:23 AM AST 4:22 PM AST
Civil Twilight 6:50 AM AST 4:54 PM AST
Nautical Twilight 6:13 AM AST 5:31 PM AST
Astronomical Twilight 5:38 AM AST 6:06 PM AST
Moon 2:43 AM AST (12/9) 1:31 PM AST (12/9)
Length of Visible Light 10h 04m
Length of Day
8h 59m
Waning Crescent, 19% of the Moon is Illuminated
Dec 9
Waning Crescent
Dec 13
New
Dec 20
First Quarter
Dec 28
Full
Jan 4
Last Quarter

Hourly Weather History & Observations

Time (AST) Temp. Windchill Dew Point Humidity Pressure Visibility Wind Dir Wind Speed Gust Speed Precip Events Conditions
12:00 AM 50.0 °F - 50.0 °F 100% 30.00 in 2.5 mi South 16.1 mph - N/A Rain Light Rain
12:13 AM 50.0 °F - 50.0 °F 100% 29.98 in 5.0 mi South 17.3 mph - N/A   Overcast
12:25 AM 50.0 °F - 50.0 °F 100% 29.98 in 5.0 mi South 16.1 mph - N/A   Overcast
12:51 AM 50.0 °F - 48.2 °F 94% 29.97 in 5.0 mi South 16.1 mph - N/A Rain Light Rain
12:59 AM 50.0 °F - 48.2 °F 94% 29.96 in 4.0 mi South 16.1 mph - N/A Rain Light Rain
1:00 AM 50.0 °F - 48.2 °F 94% 29.96 in 4.0 mi South 16.1 mph - N/A Rain Light Rain
1:08 AM 50.0 °F - 50.0 °F 100% 29.96 in 5.0 mi South 17.3 mph - N/A   Overcast
2:00 AM 51 °F - 49 °F 92% 29.94 in 5 mi South 18.4 mph - -   Overcast
2:00 AM 51.8 °F - 50.0 °F 94% 29.94 in 5.0 mi South 19.6 mph - N/A   Overcast
2:29 AM 51.8 °F - 50.0 °F 94% 29.94 in 6.0 mi South 17.3 mph 23.0 mph N/A Rain Light Rain
2:51 AM 51.8 °F - 50.0 °F 94% 29.92 in 6.0 mi South 18.4 mph - N/A   Overcast
3:00 AM 51.8 °F - 50.0 °F 94% 29.92 in 6.0 mi South 19.6 mph 25.3 mph N/A   Overcast
3:06 AM 51.8 °F - 50.0 °F 94% 29.91 in 6.0 mi South 20.7 mph - N/A   Overcast
3:53 AM 51.8 °F - 50.0 °F 94% 29.89 in 6.0 mi South 12.7 mph 20.7 mph N/A   Overcast
3:56 AM 51.8 °F - 50.0 °F 94% 29.89 in 6.0 mi South 13.8 mph - N/A   Overcast
4:00 AM 51.8 °F - 50.0 °F 94% 29.90 in 6.0 mi South 12.7 mph - N/A   Overcast
4:59 AM 53.6 °F - 51.8 °F 94% 29.86 in 4.0 mi South 26.5 mph - N/A   Mostly Cloudy
5:00 AM 53 °F - 51 °F 90% 29.86 in 4 mi SSW 21.9 mph - -  
5:00 AM 53.6 °F - 51.8 °F 94% 29.86 in 4.0 mi South 27.6 mph - N/A   Mostly Cloudy
5:17 AM 53.6 °F - 51.8 °F 94% 29.86 in 4.0 mi SSW 25.3 mph 31.1 mph N/A   Overcast
5:26 AM 53.6 °F - 51.8 °F 94% 29.86 in 3.5 mi SSW 26.5 mph 34.5 mph N/A   Mostly Cloudy
5:51 AM 53.6 °F - 51.8 °F 94% 29.87 in 3.5 mi South 24.2 mph 29.9 mph N/A   Overcast
5:59 AM 53.6 °F - 51.8 °F 94% 29.87 in 3.0 mi South 21.9 mph 29.9 mph N/A   Overcast
6:00 AM 53.6 °F - 51.8 °F 94% 29.87 in 3.0 mi South 23.0 mph 29.9 mph N/A   Overcast
6:06 AM 53.6 °F - 51.8 °F 94% 29.87 in 2.5 mi South 23.0 mph 28.8 mph N/A   Overcast
6:13 AM 51.8 °F - 51.8 °F 100% 29.87 in 1.8 mi South 24.2 mph 29.9 mph N/A   Overcast
6:32 AM 51.8 °F - 50.0 °F 94% 29.87 in 2.0 mi South 21.9 mph 28.8 mph N/A   Overcast
6:45 AM 51.8 °F - 51.8 °F 100% 29.87 in 1.4 mi SSW 21.9 mph - N/A   Overcast
7:00 AM 51.8 °F - 51.8 °F 100% 29.88 in 1.0 mi SSW 20.7 mph - N/A   Overcast
7:10 AM 51.8 °F - 51.8 °F 100% 29.88 in 0.6 mi SSW 20.7 mph - N/A   Overcast
7:20 AM 51.8 °F - 50.0 °F 94% 29.88 in 0.4 mi SSW 16.1 mph 21.9 mph N/A   Unknown
7:39 AM 51.8 °F - 50.0 °F 94% 29.87 in 0.1 mi SSW 17.3 mph - N/A   Unknown
8:00 AM 51 °F - 50 °F 93% 29.88 in 0 mi SSW 17.3 mph - -  
8:00 AM 51.8 °F - 50.0 °F 94% 29.88 in 0.1 mi SSW 18.4 mph - N/A   Unknown
9:00 AM 48.2 °F - 48.2 °F 100% 29.91 in 0.1 mi WSW 21.9 mph - N/A   Unknown
9:12 AM 48.2 °F - 48.2 °F 100% 29.91 in 0.4 mi WSW 19.6 mph - N/A   Unknown
9:21 AM 48.2 °F - 48.2 °F 100% 29.92 in 0.4 mi West 19.6 mph 27.6 mph N/A   Overcast
9:25 AM 48.2 °F - 48.2 °F 100% 29.92 in 0.8 mi West 18.4 mph 27.6 mph N/A   Overcast
9:36 AM 48.2 °F - 48.2 °F 100% 29.92 in 1.5 mi West 23.0 mph 29.9 mph N/A   Overcast
9:37 AM 48.2 °F - 46.4 °F 93% 29.92 in 1.5 mi West 23.0 mph 29.9 mph N/A   Overcast
9:59 AM 48.2 °F - 48.2 °F 100% 29.93 in 2.5 mi West 16.1 mph 23.0 mph N/A   Overcast
10:00 AM 48.2 °F - 48.2 °F 100% 29.94 in 2.5 mi West 16.1 mph 23.0 mph N/A   Overcast
10:10 AM 48.2 °F - 48.2 °F 100% 29.93 in 2.5 mi West 13.8 mph 20.7 mph N/A   Overcast
10:29 AM 50.0 °F - 48.2 °F 94% 29.93 in 2.5 mi West 19.6 mph 28.8 mph N/A   Overcast
10:38 AM 50.0 °F - 48.2 °F 94% 29.93 in 5.0 mi West 19.6 mph 25.3 mph N/A   Overcast
11:00 AM 49 °F - 48 °F 94% 29.93 in 6 mi West 17.3 mph - -   Overcast
11:00 AM 50.0 °F - 48.2 °F 94% 29.93 in 6.0 mi West 16.1 mph 21.9 mph N/A   Overcast
11:24 AM 50.0 °F - 48.2 °F 94% 29.93 in 2.4 mi West 18.4 mph 24.2 mph N/A   Overcast
11:30 AM 50.0 °F - 48.2 °F 94% 29.93 in 1.8 mi West 17.3 mph 24.2 mph N/A   Overcast
11:46 AM 50.0 °F - 48.2 °F 94% 29.92 in 2.0 mi West 20.7 mph - N/A   Overcast
11:47 AM 50.0 °F - 48.2 °F 94% 29.92 in 2.0 mi West 20.7 mph - N/A   Overcast
12:00 PM 48.2 °F - 48.2 °F 100% 29.94 in 2.0 mi West 17.3 mph 23.0 mph N/A   Overcast
12:12 PM 48.2 °F - 48.2 °F 100% 29.93 in 2.4 mi WNW 17.3 mph 23.0 mph N/A   Mostly Cloudy
12:23 PM 48.2 °F - 48.2 °F 100% 29.93 in 9.0 mi WNW 13.8 mph 23.0 mph N/A   Overcast
12:35 PM 48.2 °F - 46.4 °F 93% 29.93 in 9.0 mi West 16.1 mph 21.9 mph N/A   Overcast
1:00 PM 48.2 °F - 46.4 °F 93% 29.94 in 9.0 mi West 16.1 mph 21.9 mph N/A   Overcast
2:00 PM 49 °F - 44 °F 75% 29.97 in 9 mi WNW 19.6 mph - -   Overcast
2:00 PM 48.2 °F - 42.8 °F 82% 29.97 in 9.0 mi WNW 16.1 mph 24.2 mph N/A   Overcast
2:24 PM 48.2 °F - 42.8 °F 82% 29.98 in 9.0 mi WNW 19.6 mph 27.6 mph N/A   Partly Cloudy
3:00 PM 48.2 °F - 41.0 °F 76% 30.01 in 9.0 mi WNW 23.0 mph 28.8 mph N/A   Partly Cloudy
4:00 PM 46.4 °F 39.0 °F 39.2 °F 76% 30.05 in 9.0 mi WNW 19.6 mph 27.6 mph N/A   Clear
5:00 PM 46 °F - 38 °F 66% 30.09 in 9 mi NW 24.2 mph - -  
5:00 PM 46.4 °F 38.3 °F 39.2 °F 76% 30.09 in 9.0 mi NW 23.0 mph 29.9 mph N/A   Partly Cloudy
6:00 PM 46.4 °F 38.5 °F 35.6 °F 66% 30.12 in 9.0 mi NW 21.9 mph - N/A   Partly Cloudy
7:00 PM 44.6 °F 37.4 °F 35.6 °F 71% 30.15 in 9.0 mi NNW 16.1 mph 21.9 mph N/A   Clear
8:00 PM 43 °F - 33 °F 57% 30.18 in 9 mi NW 19.6 mph - -  
8:00 PM 42.8 °F 34.5 °F 32.0 °F 66% 30.18 in 9.0 mi NW 18.4 mph 24.2 mph N/A   Clear
9:00 PM 42.8 °F 33.3 °F 28.4 °F 57% 30.22 in 9.0 mi NW 24.2 mph - N/A   Clear
10:00 PM 42.8 °F 34.0 °F 30.2 °F 61% 30.24 in 9.0 mi NW 20.7 mph 28.8 mph N/A   Clear
11:00 PM 42 °F - 30 °F 50% 30.24 in 9 mi NW 18.4 mph - -